Starlink 30446

operational
NORAD ID: 57872 Int'l Des: 2023-144 Owner: SPXS Country: US Constellation: starlink
LEOCIRCULAR

Starlink 30446について

説明を読み込み中...

リアルタイム位置

3D地球を読み込み中...

次回通過

高度履歴

Altitude vs Time

uPlot chart will show altitude changes over time

軌道要素

1 57872U 23144J 25306.11219242 -.00000370 00000-0 -12332-4 0 9998
2 57872 43.0082 247.5747 0001655 257.9224 102.1433 15.02522377118303
Epoch: Nov 2, 2025 • Age: 16 hours

現在のステータス

高度 558.7 km
速度 7.58 km/s
衛星直下点 13.11°N, 64.97°W
打ち上げ日 Sep 16, 2023
運用期間 2.1 years
タイプ internet

技術仕様

分類 Payload
質量 730.00 kg
乾燥質量 700.00 kg
総質量 730.00 kg
長さ 0.30 m
直径 4.10 m
スパン 29.00 m
形状 Box + pan
製造者 SPXS
バスタイプ Starlink V2M
フェーズステータス In Orbit
所有者/国 SPXS/US

大規模コンステレーション

Loading constellations...